EHI
0 0 0 0 0 0 0 0 0 0 0 0 0 0 0 0 1 2 3 3 3 3 2 2 1 0 0 0 0 0 0 0 0 0 0 0 0 0 0 0 0 0 0 0
0 0 0 0 0 0 0 0 0 0 0 0 0 0 0 0 1 2 2 2 2 2 1 1 0 0 0 0 0 0 0 0 0 0 0 0 0 0 0 0 0 0 0 0
0 0 0 0 0 0 0 0 0 0 0 0 0 0 0 0 0 1 1 0 1 1 0 0 0 0 0 0 0 0 0 0 0 0 0 0 0 0 0 0 0 0 0 0
0 0 0 0 0 0 0 0 0 0 0 0 0 0 0 0 0 0 0 0 0 0 0 0 0 0 0 0 0 0 0 0 0 0 0 0 0 0 0 0 0 0 0 0
0 0 0 0 0 0 0 0 0 0 0 0 0 0 0 0 0 0 0 0 0 0 0 0 0 0 0 0 0 0 0 0 0 0 0 0 0 0 0 0 0 0 0 0
0 0 0 0 0 0 0 0 0 0 0 0 0 0 0 0 0 0 0 0 0 0 0 0 0 0 0 0 0 0 0 0 0 0 0 0 0 0 0 0 0 0 0 0
0 0 0 0 0 0 0 0 0 0 0 0 0 0 0 0 0 0 0 0 0 0 0 0 0 0 0 0 0 0 0 0 0 0 0 0 0 0 0 0 0 0 0 0
0 0 0 0 0 0 0 0 0 0 0 0 0 0 0 0 0 0 0 0 0 0 0 0 0 0 0 0 0 0 0 0 0 0 0 0 0 0 0 0 0 0 0 0
0 0 0 0 0 0 0 0 0 0 0 0 0 0 0 0 0 0 0 0 0 0 0 0 0 0 0 0 0 0 0 0 0 0 0 0 0 0 0 0 0 0 0 0
0 0 0 0 0 0 0 0 0 0 0 0 0 0 0 0 0 0 0 0 0 0 0 0 0 0 0 0 0 0 0 0 0 0 0 0 0 0 0 0 0 0 0 0
0 0 0 0 0 0 0 0 0 0 0 0 0 0 0 0 0 0 0 0 0 0 0 0 0 0 0 0 0 0 0 0 0 0 0 0 0 0 0 0 0 0 0 0
0 0 0 0 0 0 0 0 0 0 0 0 0 0 0 0 0 0 0 0 0 0 0 0 0 0 0 0 0 0 0 0 0 0 0 0 0 0 0 0 0 0 0 0
0 0 0 0 0 0 0 0 0 0 0 0 0 0 0 0 0 0 0 0 0 0 0 0 0 0 0 0 0 0 0 0 0 0 0 0 0 0 0 0 0 0 0 0
0 0 0 0 0 0 0 0 0 0 0 0 0 0 0 0 0 0 0 0 0 0 0 0 0 0 0 0 0 0 0 0 0 0 0 0 0 0 0 0 0 0 0 0
0 0 0 0 0 0 0 0 0 0 0 0 0 0 0 0 0 0 0 0 0 0 0 0 0 0 0 0 0 0 0 0 0 0 0 0 0 0 0 0 0 0 0 0
0 0 0 0 0 0 0 0 0 0 0 0 0 0 0 0 0 0 0 0 0 0 0 0 0 0 0 0 0 0 0 0 0 0 0 0 0 0 0 0 0 0 0 0
0 0 0 0 0 0 0 0 0 0 0 0 0 0 0 0 0 0 0 0 0 0 0 0 0 0 0 0 0 0 0 0 0 0 0 0 0 0 0 0 0 0 0 0
0 0 0 0 0 0 0 0 0 0 0 0 0 0 0 0 0 0 0 0 0 0 0 0 0 0 0 0 0 0 0 0 0 0 0 0 0 0 0 0 0 0 0 0
0 0 0 0 0 0 0 0 0 0 0 0 0 0 0 0 0 0 0 0 0 0 0 0 0 0 0 0 0 0 0 0 0 0 0 0 0 0 0 0 0 0 0 0
0 0 0 0 0 0 0 0 0 0 0 0 0 0 0 0 0 0 0 0 0 0 0 0 0 0 0 0 0 0 0 0 0 0 0 0 0 0 0 0 0 0 0 0
0 0 0 0 0 0 0 0 0 0 0 0 0 0 0 0 0 0 0 0 0 0 0 0 0 0 0 0 0 0 0 0 0 0 0 0 0 0 0 0 0 0 0 0
0 0 0 0 0 0 0 0 0 0 0 0 0 0 0 0 0 0 0 0 0 0 0 0 0 0 0 0 0 0 0 0 0 0 0 0 0 0 0 0 0 0 0 0
0 0 0 0 0 0 0 0 0 0 0 0 0 0 0 0 0 0 0 0 0 0 0 0 0 0 0 0 0 0 0 0 0 0 0 0 0 0 0 0 0 0 0 0
0 0 0 0 0 0 0 0 0 0 0 0 0 0 0 0 0 0 0 0 0 0 0 0 0 0 0 0 0 0 0 0 0 0 0 0 0 0 0 0 0 0 0 0
0 0 0 0 0 0 0 0 0 0 0 0 0 0 0 0 0 0 0 0 0 0 0 0 0 0 0 0 0 0 0 0 0 0 0 0 0 0 0 0 0 0 0 0
0 0 0 0 0 0 0 0 0 0 0 0 0 0 0 0 0 0 0 0 0 0 0 0 0 0 0 0 0 0 0 0 0 0 0 0 0 0 0 0 0 0 0 0
Wind_Speed
1 1 0 1 2 2 2 4 4 3 3 4 6 8 7 3 3 4 4 4 4 5 3 4 4 5 5 5 5 5 5 4 4 3 2 2 2 1 1 1 2 2 2 2
2 1 2 2 1 2 2 4 4 2 2 4 5 7 5 2 3 3 4 4 4 4 4 4 4 5 6 6 6 5 5 4 3 2 1 1 1 1 1 1 1 2 2 2
1 1 1 1 1 2 2 3 3 4 4 2 4 4 3 2 1 1 2 3 3 4 5 5 5 5 5 5 6 5 5 4 4 3 2 2 1 1 1 1 0 1 1 2
0 1 1 1 1 2 2 1 3 3 4 1 3 3 3 2 2 1 1 2 3 3 4 4 5 5 5 5 5 5 5 4 4 4 3 3 2 2 1 0 0 0 1 1
0 1 1 1 2 2 1 1 2 3 3 3 2 4 3 2 3 2 2 2 3 3 4 4 4 4 4 4 4 4 5 4 4 4 4 3 3 2 1 1 1 1 1 1
0 1 1 1 2 1 1 1 2 2 3 3 2 4 3 2 3 2 2 2 2 3 3 3 3 3 3 4 4 4 4 5 4 4 4 4 4 3 2 2 2 1 1 1
1 1 0 1 1 1 1 2 1 2 2 2 1 4 5 0 1 2 2 2 2 2 2 2 3 3 4 4 4 4 5 4 4 4 4 4 4 4 4 3 3 2 2 2
2 2 1 1 1 1 1 2 1 3 3 1 2 6 2 1 1 2 2 2 2 2 2 2 3 3 3 4 4 5 5 5 4 4 4 4 4 3 3 3 3 3 3 2
2 1 2 0 1 2 2 2 1 1 2 4 4 4 4 2 2 3 3 3 2 2 1 1 2 3 3 3 4 4 5 5 5 5 5 4 4 4 4 4 4 3 3 3
2 3 1 0 2 1 2 2 3 3 3 4 4 5 3 4 4 4 4 3 2 1 1 1 2 2 3 3 3 3 4 5 5 5 4 4 4 4 4 4 4 4 4 3
2 3 2 3 5 4 4 4 3 3 3 4 5 3 1 4 4 4 3 2 1 2 2 2 2 2 3 3 3 3 4 4 4 4 4 4 4 4 4 4 5 4 4 4
2 2 4 4 0 2 5 5 6 4 5 5 5 5 2 3 3 3 3 2 3 3 3 2 3 3 3 3 3 3 3 4 4 4 4 4 4 4 5 5 5 5 5 5
3 3 3 3 4 4 5 5 6 4 3 6 7 6 3 2 3 4 4 4 3 3 3 3 3 3 3 3 3 3 4 4 3 3 4 4 5 5 5 5 5 5 5 5
3 5 7 8 4 3 6 7 8 7 6 9 12 12 6 6 6 5 5 5 4 4 3 3 3 4 4 4 4 4 4 4 3 4 4 4 5 5 5 5 5 5 5 6
4 6 8 11 9 8 10 12 12 14 14 13 13 14 14 10 8 7 6 5 5 4 4 4 4 4 4 4 4 4 4 4 4 4 5 5 5 4 5 5 5 5 6 6
4 6 5 9 8 10 14 16 17 18 18 20 20 20 13 8 7 7 7 6 5 5 5 5 5 5 5 5 4 4 4 4 4 5 5 5 5 5 5 5 5 5 6 6
5 5 5 8 5 8 14 14 16 14 14 14 17 13 6 5 6 6 6 6 6 6 5 5 5 5 5 5 5 5 5 4 5 6 5 5 5 5 5 5 6 6 6 6
7 6 5 6 5 13 6 1 6 11 12 13 11 8 6 7 6 6 6 6 6 6 6 5 5 5 5 5 5 5 4 5 5 6 6 5 5 6 6 6 6 7 6 6
11 8 6 5 9 13 9 4 5 8 9 8 11 11 8 5 5 6 6 6 6 6 6 6 5 5 5 5 5 4 5 5 6 6 6 6 6 6 6 6 7 6 6 6
7 8 7 7 8 10 4 1 2 4 7 3 5 7 5 2 5 4 2 4 6 6 5 5 5 5 5 5 4 5 6 6 7 6 6 6 6 6 7 7 7 6 6 7
6 8 11 12 11 11 4 3 4 6 3 1 3 5 5 6 6 5 5 5 6 6 6 5 5 5 5 4 4 6 6 7 6 5 6 6 6 7 7 6 6 6 6 6
9 8 9 9 11 11 4 6 6 4 3 4 5 5 6 7 7 7 7 6 6 6 6 5 5 5 5 5 5 6 7 6 5 5 6 7 7 6 5 6 6 6 6 6
9 9 6 9 8 3 4 6 5 5 6 6 7 7 7 7 8 8 7 7 7 7 6 5 6 6 5 5 6 7 7 5 5 6 7 7 6 6 6 6 6 5 5 5
6 5 6 9 11 10 8 9 9 8 9 9 9 8 8 8 9 8 8 7 7 7 6 6 6 6 6 5 6 7 6 5 6 7 7 6 6 6 6 5 5 5 5 5
8 6 8 12 12 11 10 9 10 10 10 10 9 8 9 9 9 9 8 8 7 7 6 6 6 7 7 6 6 6 6 6 7 7 7 6 6 6 6 6 6 7 7 6
9 10 10 11 9 9 11 9 9 9 9 9 9 9 8 9 10 10 8 7 7 7 6 6 7 7 8 7 7 6 6 6 6 6 6 5 5 5 5 5 5 7 8 9
Wind_Direction
36 173 229 277 266 291 281 270 277 294 331 282 261 274 283 274 238 233 229 219 218 217 199 179 176 167 162 164 166 167 154 149 151 153 158 155 140 118 102 72 57 41 22 9
178 209 309 301 238 220 246 264 279 291 332 293 279 281 280 261 241 241 235 220 212 204 191 183 182 174 175 172 173 169 164 163 164 161 148 134 122 119 95 87 62 24 6 358
205 18 323 216 200 228 264 270 288 301 317 259 289 257 198 169 216 243 241 231 215 208 200 189 184 180 180 181 182 176 171 168 168 160 142 140 153 170 172 171 105 24 358 348
255 308 242 231 266 271 263 263 267 281 279 275 306 268 209 188 209 228 217 197 199 197 198 188 183 182 184 185 177 177 170 168 172 174 182 186 203 212 210 214 245 315 328 328
190 281 259 258 312 282 304 320 259 263 258 263 227 257 232 166 219 228 218 201 191 191 186 181 186 188 184 178 174 173 168 171 176 188 197 205 217 226 210 211 236 265 285 310
272 272 296 310 327 275 235 233 187 201 237 250 229 253 249 185 220 215 207 203 187 180 174 170 171 176 177 174 173 174 177 182 185 195 203 213 218 221 224 235 245 250 256 265
189 170 113 259 232 147 273 268 263 232 229 245 124 251 261 134 245 238 228 220 201 179 172 175 179 183 181 180 179 181 187 193 194 201 211 215 222 225 233 244 249 256 254 251
243 207 175 245 269 243 233 277 283 283 284 293 205 243 259 62 255 244 228 216 179 162 178 194 201 200 195 193 192 194 198 203 203 209 214 219 220 224 231 239 248 252 258 265
252 236 115 205 300 252 190 198 332 288 282 268 242 257 267 184 183 180 179 176 169 155 170 206 216 218 212 204 203 204 207 211 208 209 213 218 223 225 229 238 245 253 258 263
269 264 211 197 191 139 304 165 184 214 264 266 256 244 231 176 174 167 171 178 180 190 203 236 229 223 223 218 207 205 214 218 216 214 215 218 224 228 233 236 237 243 250 253
241 246 223 206 217 209 176 189 216 225 263 270 274 251 152 194 187 185 184 196 226 244 254 259 243 225 219 216 206 204 212 217 217 221 225 226 229 230 234 237 240 243 245 245
198 246 253 238 79 311 241 226 209 228 227 238 269 272 105 213 211 211 225 261 281 276 263 251 243 226 218 219 216 216 215 217 222 223 227 232 237 235 236 240 243 243 243 241
173 213 258 216 184 192 227 223 226 246 252 229 240 252 113 207 234 239 253 275 286 279 262 248 243 232 228 229 226 223 220 222 223 222 228 233 237 239 242 246 247 244 244 244
204 230 237 258 293 202 225 224 214 212 228 240 241 259 254 252 258 259 260 267 279 275 259 254 252 244 237 235 233 231 229 225 223 225 232 238 244 247 253 255 252 249 246 246
212 249 249 265 273 263 255 246 227 226 234 245 257 261 268 272 270 268 264 266 271 270 266 264 262 258 248 245 244 241 239 232 227 234 240 245 251 254 255 254 252 251 248 247
221 252 265 266 258 259 263 254 242 241 244 249 261 268 272 279 273 263 253 251 259 267 270 270 264 260 253 252 254 249 245 239 234 239 246 251 253 254 254 254 253 252 251 249
209 220 244 265 272 278 259 246 231 229 230 235 246 255 267 265 259 257 249 243 252 264 269 269 265 261 259 257 256 253 251 245 240 244 249 250 252 255 256 256 254 251 252 250
212 212 236 269 261 247 260 153 226 231 241 231 242 256 265 271 279 267 249 250 261 266 268 271 273 271 269 263 257 256 251 243 244 247 249 250 251 254 258 256 255 255 253 248
218 213 226 238 254 268 269 226 206 225 252 232 239 257 269 290 278 254 236 249 263 271 274 277 278 275 270 262 257 252 247 243 244 248 250 250 250 255 257 255 257 258 255 253
202 216 228 232 248 256 271 154 186 218 253 233 241 260 267 239 258 265 267 267 272 277 278 281 282 274 267 264 252 245 245 245 246 251 253 254 251 251 255 258 259 258 255 254
182 202 220 233 247 263 277 142 164 227 285 33 265 268 247 241 266 301 293 282 278 281 285 286 279 271 268 264 246 245 248 250 255 257 256 254 252 252 256 259 257 256 255 255
198 201 211 219 234 250 156 156 212 271 327 289 284 277 258 261 278 282 281 278 276 280 284 283 277 273 269 255 246 251 256 263 264 260 258 257 256 256 252 253 255 253 250 251
220 218 217 217 238 287 195 223 257 277 275 280 281 281 267 268 273 275 277 277 277 277 280 280 275 273 268 255 247 255 265 269 263 261 260 261 260 257 250 248 250 250 246 247
232 229 239 254 260 264 261 262 264 263 270 276 274 273 264 265 269 270 270 272 273 272 273 273 270 269 271 265 258 261 268 264 258 260 263 262 260 260 255 249 244 242 242 245
246 219 242 258 271 281 268 261 267 271 271 271 269 266 263 265 267 267 269 269 269 269 268 266 262 266 272 274 267 265 263 256 257 261 263 262 259 258 257 253 249 246 246 244
232 230 239 258 269 271 282 289 284 276 271 269 269 267 261 258 263 266 266 265 265 267 268 265 264 267 273 275 273 269 261 254 255 259 259 259 258 257 256 258 262 250 249 254